Starlink 31521

operational
NORAD ID: 59015 Int'l Des: 2024-036 Owner: SPXS Country: US Constellation: starlink
LEOCIRCULAR

Über Starlink 31521

Beschreibung wird geladen...

Live-Position

3D-Globus wird geladen...

Nächste Überflüge

Höhenverlauf

Altitude vs Time

uPlot chart will show altitude changes over time

Zweizeiliger Elementsatz

1 59015U 24036T 25350.63729126 -.00000395 00000-0 -12032-5 0 9998
2 59015 53.1609 104.1726 0001118 79.7964 280.3162 15.30191424102601
Epoch: 16. Dez. 2025 • Age: 18 hours

Aktueller Status

Höhe 477.0 km
Geschwindigkeit 7.63 km/s
Subsatellitenpunkt -4.42°S, 57.55°E
Startdatum 23. Feb. 2024
Alter 1.8 years
Typ internet

Technische Details

Klassifizierung Payload
Masse 730.00 kg
Trockenmasse 700.00 kg
Gesamtmasse 730.00 kg
Länge 0.30 m
Durchmesser 4.10 m
Spannweite 29.00 m
Form Box + pan
Hersteller SPXS
Bus-Typ Starlink V2M
Phasenstatus In Orbit
Besitzer/Staat SPXS/US

Große Konstellationen

Loading constellations...